Location: Newark
(42.9858°N, 0.6717°E)
Time: 05:17:15
(UTC+00:00)

S-56A Canister/Altair - Pass Details

Date: 25 November 2019
Orbit: 633 x 2499 km, 38.9° (Epoch: 10 December)

Event Time Altitude Azimuth Distance (km) Brightness Sun altitude
Rises 16:06:49 0° 251° (WSW) 5,816 14.1 2.3°
Reaches altitude 10° 16:11:01 10° 250° (WSW) 4,595 13.6 1.7°
Maximum altitude 16:22:54 66° 172° (S) 1,691 9.4 -0.2°
Drops below altitude 10° 16:30:42 10° 92° (E) 3,103 10.1 -1.5°
Sets 16:33:02 0° 89° (E) 3,861 10.6 -1.9°
